JAS 2

导读

JAS 2卫星(又名Fuji 2、Fuji-OSCAR 29)是日本业余无线电组织研发的业余无线电通信卫星,于1996年8月17日在种子岛航天中心由H-2运载火箭发射升空。卫星质量约50千克,运行在高度800千米×1320千米、倾角98.6°的太阳同步轨道上,由日本业余无线电爱好者捐资建造,是日本业余卫星系列的第二颗,主要为全球业余无线电爱好者提供通信实验服务。

基本信息
目录编号:
24278
目录名称:
JAS 2
国际标识:
1996-046B
轨道中心:
EARTH
卫星名称:
JAS 2
卫星全名:
--
卫星状态:
在轨 (已飞行10923 天)
发射日期:
1996-08-17 UTC
国别 :
日本 (JP)
星等 :
--
轨道信息
数据来源 国际轨道数据 AOE轨道数据
星历时间 2026-07-13T21:22:32+0800
14小时前
查看轨道信息
2026-07-13T17:00:00+0800
19小时前
查看轨道信息
半长轴 7438.369km 7438.369km
偏心率 0.0350433 0.0350541
轨道倾角 98.522° 98.524°
近地点辐角 28.183° 28.667°
升交点赤经 39.815° 39.657°
平近点角 333.779° 165.570°
近地点 799.567km 799.486km
远地点 1320.897km 1320.978km
周期 106.408分钟 106.408分钟
每日圈数 13.532755 13.532756
详细信息
使用方式:
暂无
2D轨道图
3D轨道图
轨道高度分析图
轨道倾角分析图
轨道综合分析图
查看轨道综合分析图